timestamp,surface_pressure_avg,surface_temp_avg,battery_voltage,lat,long
2023-07-12 16:19:00+00:00,249.5448,14.9,13.53,47.84626,-54.09684
2023-07-12 16:29:00+00:00,252.4081,14.9,13.53,47.84626,-54.09684
2023-07-12 16:39:00+00:00,259.6681,14.88,13.53,47.84626,-54.09684
2023-07-12 16:49:00+00:00,269.7314,14.88,13.53,47.84626,-54.09684
2023-07-12 16:59:00+00:00,276.1647,14.9,13.53,47.84626,-54.09684
2023-07-12 17:09:00+00:00,279.923,14.9,13.53,47.84626,-54.09684
2023-07-12 17:19:00+00:00,287.5498,14.9,13.68,47.84626,-54.09684
2023-07-12 17:29:00+00:00,293.9447,14.9,13.68,47.84626,-54.09684
2023-07-12 17:39:00+00:00,296.3597,14.9,13.68,47.84626,-54.09684
2023-07-12 17:49:00+00:00,300.913,14.9,13.68,47.84626,-54.09684
2023-07-12 17:59:00+00:00,307.358,14.9,13.68,47.84626,-54.09684
2023-07-12 18:09:00+00:00,310.2279,14.9,13.68,47.84626,-54.09684
2023-07-12 18:19:00+00:00,312.2797,14.9,13.53,47.84626,-54.09684
2023-07-12 18:29:00+00:00,316.9247,14.9,13.53,47.84626,-54.09684
2023-07-12 18:39:00+00:00,320.2529,14.9,13.53,47.84626,-54.09684
2023-07-12 18:49:00+00:00,320.5348,14.9,13.53,47.84626,-54.09684
2023-07-12 18:59:00+00:00,322.3481,14.92,13.53,47.84626,-54.09684
2023-07-12 19:09:00+00:00,326.493,14.91,13.53,47.84626,-54.09684
2023-07-12 19:19:00+00:00,325.8563,14.93,13.44,47.84626,-54.09684
2023-07-12 19:29:00+00:00,324.5098,14.95,13.44,47.84626,-54.09684
2023-07-12 19:39:00+00:00,325.4279,14.97,13.44,47.84626,-54.09684
2023-07-12 19:49:00+00:00,327.8647,14.98,13.44,47.84626,-54.09684
2023-07-12 19:59:00+00:00,329.1545,15.0,13.44,47.84626,-54.09684
2023-07-12 20:09:00+00:00,330.7413,15.09,13.44,47.84626,-54.09684
2023-07-12 20:19:00+00:00,332.6579,15.1,13.37,47.84626,-54.09684
2023-07-12 20:29:00+00:00,331.4197,15.0,13.37,47.84626,-54.09684
2023-07-12 20:39:00+00:00,327.86800000000005,15.0,13.37,47.84626,-54.09684
2023-07-12 20:49:00+00:00,327.8614,15.0,13.37,47.84626,-54.09684
2023-07-12 20:59:00+00:00,326.89799999999997,15.0,13.37,47.84626,-54.09684
2023-07-12 21:09:00+00:00,323.9847,15.0,13.37,47.84626,-54.09684
2023-07-12 21:19:00+00:00,318.8314,15.06,13.29,47.84626,-54.09684
2023-07-12 21:29:00+00:00,316.3831,15.09,13.29,47.84626,-54.09684
2023-07-12 21:39:00+00:00,310.6512,15.1,13.29,47.84626,-54.09684
2023-07-12 21:49:00+00:00,302.8747,15.11,13.29,47.84626,-54.09684
2023-07-12 21:59:00+00:00,294.4997,15.2,13.29,47.84626,-54.09684
2023-07-12 22:09:00+00:00,289.118,15.2,13.29,47.84626,-54.09684
2023-07-12 22:19:00+00:00,287.0531,15.2,13.13,47.84626,-54.09684
2023-07-12 22:29:00+00:00,283.368,15.21,13.13,47.84626,-54.09684
2023-07-12 22:39:00+00:00,273.2747,15.3,13.13,47.84626,-54.09684
2023-07-12 22:49:00+00:00,265.0014,15.45,13.13,47.84626,-54.09684
2023-07-12 22:59:00+00:00,260.6564,15.5,13.13,47.84626,-54.09684
2023-07-12 23:09:00+00:00,254.2847,15.49,13.13,47.84626,-54.09684
2023-07-12 23:19:00+00:00,245.6381,15.47,12.97,47.84626,-54.09684
2023-07-12 23:29:00+00:00,238.0931,15.46,12.97,47.84626,-54.09684
2023-07-12 23:39:00+00:00,232.7281,15.5,12.97,47.84626,-54.09684
2023-07-12 23:49:00+00:00,228.3948,15.5,12.97,47.84626,-54.09684
2023-07-12 23:59:00+00:00,222.6514,15.5,12.97,47.84626,-54.09684
